Home   Weather   Fort Smith   Past weeks

Flag for Canada Past Weather in Fort Smith, Northwest Territories, Canada — Yesterday and Last 2 Weeks

Now
-22 °F

Light snow. Partly sunny.


Feels Like: -33 °F
Forecast: -29 / -14 °F
Wind: 3 mph from South

Location: Fort Smith

Current Time: Dec 9, 2016 at 12:33:49 pm

Latest Report: Dec 9, 2016 at 12:00 pm


Visibility: 15 mi

Pressure: 30.78 "Hg

Humidity: 68%

Dew Point: -29 °F

Location of Fort SmithLocation

Past Weather in Fort Smith — Graph

°F

Fort Smith Temperature Yesterday

Maximum temperature yesterday: -18 °F (at 12:00 am)
Minimum temperature yesterday: -29 °F (at 8:00 pm)
Average temperature yesterday: -24 °F

High & Low Weather Summary for the Past Weeks

 TemperatureHumidityPressure
High32 °F (Nov 25, 5:00 am)100% (Nov 24, 3:00 pm)31.00 "Hg (Nov 24, 3:00 pm)
Low-29 °F (Dec 8, 8:00 pm)67% (Dec 8, 5:00 am)28.05 "Hg (Dec 7, 3:00 pm)
Average14 °F87%29.86 "Hg
* Reported Nov 24 11:00 am — Dec 9 11:00 am, Fort Smith, Weather by CustomWeather, © 2016

Note: Actual official high and low records may vary slightly from our data, if they occured in-between our weather recording intervals... More about our weather records

Advertising

Fort Smith Weather History for the Previous 24 Hours

Scroll right to see more
 ConditionsComfort  
Time TempWeatherWind HumidityBarometerVisibility
11:00 am
Fri, Dec 9
-26 °FLight snow. Partly sunny.5 mph75%30.81 "Hg15 mi
10:00 am-27 °FLight snow. Partly sunny.3 mph67%30.84 "Hg15 mi
9:00 am-29 °FLight snow. Passing clouds.3 mph74%30.84 "Hg15 mi
8:00 am-29 °FLight snow. Passing clouds.5 mph74%30.85 "Hg15 mi
7:00 am-27 °FLight snow. Passing clouds.3 mph67%30.86 "Hg15 mi
6:00 am-29 °FSnow flurries. Passing clouds.6 mph74%30.87 "Hg15 mi
5:00 am-29 °FSnow flurries. Passing clouds.5 mph74%30.89 "Hg15 mi
4:00 am-29 °FSnow flurries. Partly cloudy.5 mph67%30.91 "Hg15 mi
3:00 am-29 °FSnow flurries. Passing clouds.3 mph67%30.92 "Hg15 mi
2:00 am-29 °FSnow flurries. Low clouds.5 mph67%30.92 "Hg15 mi
1:00 am-29 °FSnow flurries. Partly cloudy.2 mph67%30.94 "Hg12 mi
12:00 am-29 °FSnow flurries. Passing clouds.2 mph74%30.94 "Hg10 mi
11:00 pm
Thu, Dec 8
-29 °FSnow flurries. Low clouds.5 mph74%30.95 "Hg15 mi
10:00 pm-29 °FSnow flurries. Passing clouds.No wind67%30.95 "Hg15 mi
9:00 pm-29 °FSnow flurries. Clear.2 mph74%30.96 "Hg15 mi
8:00 pm-29 °FSnow flurries. Clear.2 mph74%30.97 "Hg15 mi
7:00 pm-27 °FSnow flurries. Passing clouds.No wind74%30.98 "Hg15 mi
6:00 pm-26 °FSnow flurries. Passing clouds.No wind67%30.99 "Hg15 mi
5:00 pm-26 °FSnow flurries. Passing clouds.No wind75%31.00 "Hg15 mi
4:00 pm-24 °FPassing clouds.2 mph75%28.07 "Hg15 mi
3:00 pm-22 °FPassing clouds.2 mph75%28.07 "Hg15 mi
2:00 pm-20 °FPassing clouds.No wind75%28.07 "Hg15 mi
1:00 pm-22 °FPassing clouds.No wind75%28.08 "Hg15 mi
12:00 pm-24 °FPassing clouds.No wind75%28.09 "Hg15 mi
Weather by CustomWeather, © 2016

See weather overviewHow to use our weather pages